{"data":{"norad_id":67119,"intl_designator":"2025-299T","name":"STARLINK-36179","alt_names":[],"object_type":"PAYLOAD","status":"ACTIVE","operator":null,"country":"US","launch_date":"2025-12-15","launch_site_code":"AFETR","launch_vehicle":null,"mission":null,"orbit_class":"UNKNOWN","rcs_meters":null,"size_class":null,"mass_kg":null,"dimensions":null,"purposes":["comms"],"wikipedia_slug":null,"has_3d_model":false,"image_url":null,"decayed_at":null,"tle_current":{"epoch":"2026-09-20T23:25:30.211968Z","epoch_age_seconds":37182,"freshness":"FRESH","line1":"1 67119U 25299T   26263.97604412  .00009092  00000+0  33936-3 0  9999","line2":"2 67119  43.0006 146.0418 0001289 275.4674  84.6031 15.27593478 42984","mean_motion":15.27593478,"eccentricity":0.0001289,"inclination_deg":43.0006,"raan_deg":146.0418,"arg_perigee_deg":275.4674,"mean_anomaly_deg":84.6031,"bstar":0.00033936,"rev_number":4298,"period_min":94.26591699549,"perigee_km":482.12433667003,"apogee_km":483.89314004137,"semimajor_km":6861.1457383557,"source":"CELESTRAK","updated_at":"2026-09-21T09:00:36.107130Z"}}}